Regional Weather Roundup
Issued by NWS

Home | Current Version | Previous Version | Text Only | Print | Product List | Glossary On
Versions: 1 2 3 4 5 6 7 8 9 10 11 12 13 14 15 16 17 18 19 20 21 22 23 24 25 26 27
000
ASCA42 TJSJ 260610
RWRPR
PUERTO RICO/U.S. VIRGIN ISLANDS HOURLY WEATHER ROUNDUP
NATIONAL WEATHER SERVICE SAN JUAN PR
200 AM AST SUN MAR 26 2017

PRZ001>002-007>008-010-260700-
PUERTO RICO

CITY           SKY/WX    TMP DP  RH WIND       PRES   REMARKS
SAN JUAN LMM   PTCLDY    77  73  88 CALM      29.90F
PONCE          MOCLDY    75  75 100 CALM      29.96
AGUADILLA      CLOUDY    72  66  83 NW10G26   29.95R
CEIBA          CLOUDY    77  73  88 S7        29.93F
$$

VIZ001>002-260700-
U.S. VIRGIN ISLANDS

CITY           SKY/WX    TMP DP  RH WIND       PRES   REMARKS
CHARLOTTE AMA  CLOUDY    79  73  83 SE10      29.90F
CHRISTIANSTED  PTCLDY    79  72  78 SE7       29.92F
$$

HOURLY WEATHER ROUNDUP FOR THE NEWS MEDIA

CITY           SKY/WX    TMP DP  RH WIND       PRES   REMARKS
ORLANDO        CLEAR     64  58  80 CALM      30.15S
NEW YORK       CLOUDY    43  36  76 NE13      30.41S
NEWARK         CLOUDY    43  33  68 E14G20    30.40R
CHICAGO        CLOUDY    47  44  90 NE8       29.92F FOG
HARTFORD       CLOUDY    31  28  89 N3        30.42S FOG
BOSTON         CLOUDY    33  28  81 N6        30.45R WCI  28
DALLAS         CLEAR     59  46  62 SE7       29.91F
PHILADELPHIA   CLOUDY    45  38  76 E15G22    30.35S
LOS ANGELES    PTCLDY    57  54  89 W9        30.04F
WASHINGTON DC  CLOUDY    57  46  66 E14       30.20R



USA.gov is the U.S. government's official web portal to all federal, state and local government web resources and services.